CZ-6A DEB, 60822

Orbit data source: Space-Track

CZ-6A DEB, 60822 is space debris in LEO originally from a launch on Tue, 06 Aug 2024 UTC launched from the Taiyaun Space Center, China (TSC). Debris objects in space refer to the collection of defunct objects orbiting the Earth. Examples of debris include non-operational satellites, rocket bodies, and fragments generated from explosions, collisions, or faulty payload assembly.

Loading next visibility...
Identifier
60822, 2024-140GZ
Orbit
LEO
Country
Flag of CNCN / PRC
Related business
Manufacturer
SAST
Mission
Spacecraft
Bus & Motor
Unknown
Mass
Unknown
Launch date (UTC)
2024-08-06 (2 years ago)
Launch vehicle
Unknown
Launch site
Taiyaun Space Center, China (TSC)
Object type
Payload
Rocket body
Debris
Shape & HBR
Unknown shape, 0.2 m
Radar Cross Section
Medium (>0.1 m² and <1 m²)

Expand to show TLE details & history
Last TLE update: 13 hours ago

TLE from 13 hours ago
0 CZ-6A DEB
1 60822U 24140GZ  26171.29164534  .00000227  00000-0  48357-4 0  9992
2 60822  89.0081 270.7610 0114873 267.5437  91.2616 14.51452790 98029
Epoch: 2026-06-20T06:59Z
TLE epoch observation values (Epoch: 2026-06-20T06:59:58.157Z)
Latitude
0.00002°
Longitude
-102.73969°
Altitude
726.738 km
Speed
7.49 km/s
True Right ascension
18h 03m 02s
True Declination
0° 00' 00"
Sunlit
Object was in full shadow at epoch
Visualization orbit readout
Latitude
Unknown
Longitude
Unknown
Altitude
Unknown
Speed
Unknown
Apparent Right ascension
Unknown
Apparent Declination
Unknown
Sunlit
N/A
Visualization observer readout
Local Sidereal Time
07:20:47
Azimuth
Unknown
Elevation
Unknown
Doppler factor
Unknown
Orbital elements
Apogee altitude
799.326 km
Perigee altitude
636.3 km
Semi-major axis
7,095.95 km
Eccentricity
0.01149
Inclination
89.0081°
RAAN
270.761°
Arg. of periapsis
267.5437°
True anomaly
92.5771°
Mean anomaly
91.2616°
Eccentric anomaly
91.9194°
Mean motion
3.63101 °/min
Orbital period
99.15 mins
BSTAR
0.000048357
Loading maneuver chart data...
Computing Atmospheric mass density...
Loading historical data...
Loading historical data...
Loading historical data...
Loading historical data...
Loading historical data...
Loading historical data...
Loading historical data...

Documentation

Showing up to 5 results
|